Overview Statistics Trail Chart Weather Telemetry Raw packets
 

This is the latest recevied weather packets stored in our database for station/object DL0BB-10. If no packets are shown the sender has not sent any weather packets the latest 10 day(s).

<< 1 2 3 4 5 6 >>
Time Temp. Humidity Pressure Rain* Wind** Luminosity Snow
1788670801 25° C 36% 1027 hPa - - - -
1788669900 25.56° C 35% 1026.9 hPa - - - -
1788669000 26.11° C 34% 1026.7 hPa - - - -
1788668100 25° C 37% 1026.7 hPa - - - -
1788667199 25.56° C 36% 1027 hPa - - - -
1788666299 25.56° C 36% 1027.1 hPa - - - -
1788665399 26.11° C 35% 1027.1 hPa - - - -
1788664499 25.56° C 37% 1027.2 hPa - - - -
1788663598 25.56° C 36% 1027.2 hPa - - - -
1788662703 26.11° C 35% 1027.1 hPa - - - -
1788661803 26.11° C 35% 1027 hPa - - - -
1788660902 25.56° C 37% 1027 hPa - - - -
1788660002 26.11° C 36% 1027.3 hPa - - - -
1788659102 26.67° C 35% 1027.1 hPa - - - -
1788658202 26.11° C 36% 1027 hPa - - - -
1788657302 25.56° C 37% 1027.2 hPa - - - -
1788656402 26.11° C 36% 1027.2 hPa - - - -
1788655502 26.67° C 35% 1027 hPa - - - -
1788654601 26.11° C 37% 1027 hPa - - - -
1788653701 26.11° C 37% 1027 hPa - - - -
1788652801 26.67° C 37% 1027.1 hPa - - - -
1788651900 27.22° C 36% 1027 hPa - - - -
1788651000 26.11° C 38% 1026.9 hPa - - - -
1788650100 26.11° C 38% 1027 hPa - - - -
1788649199 26.67° C 37% 1026.9 hPa - - - -

* Rain since midnight (hover to see other rain measurements)
** Current wind speed in m/s (hover to see current wind gust speed)